Weather History for ANGELHOLM (SWE-, SE

Change the Weather History Date:

Friday, March 21, 2014

  Actual Average Record
Temperature  
Mean Temperature 48 °F -  
Max Temperature 55 °F - - ()
Min Temperature 42 °F - - ()
Degree Days  
Heating Degree Days 16    
Moisture  
Dew Point 40 °F    
Average Humidity 77    
Maximum Humidity 87    
Minimum Humidity 54    
Precipitation  
Precipitation 0.00 in - - ()
Sea Level Pressure  
Sea Level Pressure 29.53 in    
Wind  
Wind Speed 14 mph ()    
Max Wind Speed 21 mph    
Max Gust Speed 33 mph    
Visibility 6.2 miles    
Events      
T = Trace of Precipitation, MM = Missing Value Source: Averaged Metar Reports

Daily Weather History Graph

Daily Weather History Graph

Search for Another Location

Airport:

Trip Planner

Search our weather history database for the weather conditions in past years. The results will help you decide how hot, cold, wet, or windy it might be!

Date:

Astronomy

Mar. 21, 2014 Rise Set
Actual Time 6:08 AM CET 6:24 PM CET
Civil Twilight 5:31 AM CET 7:01 PM CET
Nautical Twilight 4:46 AM CET 7:46 PM CET
Astronomical Twilight 3:59 AM CET 8:34 PM CET
Moon No Moon Rise 7:58 AM CET (3/21)
Length of Visible Light 13h 30m
Length of Day
12h 15m
Waning Gibbous, 77% of the Moon is Illuminated
Mar 21
Waning Gibbous
Mar 24
Last Quarter
Mar 30
New
Apr 7
First Quarter
Apr 15
Full

Hourly Weather History & Observations

Time (CET) Temp. Windchill Dew Point Humidity Pressure Visibility Wind Dir Wind Speed Gust Speed Precip Events Conditions
12:20 AM 51.8 °F - 39.2 °F 62% 29.47 in 6.2 mi SSE 11.5 mph - N/A   Unknown
12:50 AM 53.6 °F - 39.2 °F 58% 29.44 in 6.2 mi South 13.8 mph - N/A   Unknown
1:20 AM 55.4 °F - 39.2 °F 54% 29.44 in 6.2 mi SSW 17.3 mph - N/A   Unknown
1:50 AM 53.6 °F - 39.2 °F 58% 29.44 in 6.2 mi SSW 15.0 mph - N/A   Unknown
2:20 AM 53.6 °F - 39.2 °F 58% 29.44 in 6.2 mi SW 20.7 mph 33.4 mph N/A   Partly Cloudy
2:50 AM 51.8 °F - 41.0 °F 67% 29.44 in 6.2 mi WSW 17.3 mph - N/A   Unknown
3:20 AM 50.0 °F - 41.0 °F 71% 29.44 in 6.2 mi WSW 18.4 mph - N/A   Partly Cloudy
3:50 AM 48.2 °F - 41.0 °F 76% 29.44 in 6.2 mi WSW 19.6 mph - N/A   Overcast
4:20 AM 48.2 °F - 42.8 °F 82% 29.44 in 6.2 mi SW 16.1 mph - N/A   Overcast
4:50 AM 48.2 °F - 42.8 °F 82% 29.44 in 6.2 mi SW 15.0 mph - N/A   Light Drizzle
5:20 AM 48.2 °F - 42.8 °F 82% 29.44 in 6.2 mi SW 16.1 mph - N/A   Light Drizzle
5:50 AM 48.2 °F - 42.8 °F 82% 29.44 in 5.0 mi SW 13.8 mph - N/A   Drizzle
6:50 AM 48.2 °F - 44.6 °F 87% 29.47 in 6.2 mi SW 13.8 mph - N/A   Mostly Cloudy
7:20 AM 48.2 °F - 42.8 °F 82% 29.47 in 6.2 mi SW 16.1 mph - N/A   Mostly Cloudy
7:50 AM 46.4 °F 39.5 °F 42.8 °F 87% 29.50 in 6.2 mi WSW 17.3 mph - N/A   Mostly Cloudy
8:20 AM 46.4 °F 39.2 °F 42.8 °F 87% 29.50 in 6.2 mi WSW 18.4 mph - N/A   Partly Cloudy
8:50 AM 46.4 °F 39.2 °F 42.8 °F 87% 29.50 in - WSW 18.4 mph - N/A   Clear
9:20 AM 48.2 °F - 42.8 °F 82% 29.53 in - WSW 18.4 mph - N/A   Clear
9:50 AM 46.4 °F 39.8 °F 42.8 °F 87% 29.53 in 6.2 mi WSW 16.1 mph - N/A   Mostly Cloudy
10:20 AM 48.2 °F - 42.8 °F 82% 29.53 in 6.2 mi West 15.0 mph - N/A   Partly Cloudy
10:50 AM 46.4 °F 39.8 °F 42.8 °F 87% 29.56 in 6.2 mi WSW 16.1 mph - N/A   Mostly Cloudy
11:20 AM 46.4 °F 40.1 °F 42.8 °F 87% 29.56 in 6.2 mi WSW 15.0 mph - N/A   Overcast
11:50 AM 48.2 °F - 41.0 °F 76% 29.56 in 6.2 mi WSW 16.1 mph - N/A   Overcast
12:20 PM 48.2 °F - 41.0 °F 76% 29.56 in 6.2 mi WSW 15.0 mph - N/A   Overcast
12:50 PM 48.2 °F - 41.0 °F 76% 29.56 in 6.2 mi WSW 15.0 mph - N/A   Mostly Cloudy
1:20 PM 48.2 °F - 41.0 °F 76% 29.53 in 6.2 mi WSW 13.8 mph - N/A   Mostly Cloudy
1:50 PM 48.2 °F - 39.2 °F 71% 29.53 in 6.2 mi WSW 13.8 mph - N/A   Mostly Cloudy
2:20 PM 46.4 °F 41.1 °F 39.2 °F 76% 29.53 in 6.2 mi WSW 11.5 mph - N/A   Mostly Cloudy
2:50 PM 46.4 °F 41.5 °F 39.2 °F 76% 29.53 in 6.2 mi WSW 10.4 mph - N/A   Mostly Cloudy
3:20 PM 46.4 °F 41.1 °F 39.2 °F 76% 29.53 in 6.2 mi WSW 11.5 mph - N/A   Partly Cloudy
3:50 PM 46.4 °F 41.5 °F 39.2 °F 76% 29.53 in 6.2 mi WSW 10.4 mph - N/A   Mostly Cloudy
4:20 PM 46.4 °F 41.9 °F 39.2 °F 76% 29.53 in 6.2 mi SW 9.2 mph - N/A   Overcast
4:50 PM 46.4 °F 42.4 °F 39.2 °F 76% 29.53 in 6.2 mi WSW 8.1 mph - N/A   Partly Cloudy
5:20 PM 46.4 °F 40.7 °F 39.2 °F 76% 29.53 in 6.2 mi SW 12.7 mph - N/A   Overcast
5:50 PM 46.4 °F 39.8 °F 35.6 °F 66% 29.56 in 6.2 mi WSW 16.1 mph - N/A   Light Drizzle
6:20 PM 44.6 °F 38.1 °F 37.4 °F 76% 29.56 in 6.2 mi West 13.8 mph - N/A   Drizzle
6:50 PM 44.6 °F 38.4 °F 39.2 °F 81% 29.59 in 6.2 mi WSW 12.7 mph - N/A   Overcast
7:20 PM 44.6 °F 39.2 °F 39.2 °F 81% 29.59 in 6.2 mi WSW 10.4 mph - N/A   Overcast
7:50 PM 44.6 °F 38.8 °F 37.4 °F 76% 29.59 in 6.2 mi West 11.5 mph - N/A   Overcast
8:20 PM 42.8 °F 37.0 °F 37.4 °F 81% 29.62 in 6.2 mi WSW 10.4 mph - N/A   Overcast
8:50 PM 42.8 °F 36.6 °F 37.4 °F 81% 29.62 in - WSW 11.5 mph - N/A   Clear
9:20 PM 42.8 °F 36.2 °F 37.4 °F 81% 29.62 in - WSW 12.7 mph - N/A   Clear
9:50 PM 42.8 °F 36.2 °F 37.4 °F 81% 29.65 in - West 12.7 mph - N/A   Clear
10:20 PM 42.8 °F 35.8 °F 37.4 °F 81% 29.65 in 6.2 mi WSW 13.8 mph - N/A   Unknown
10:50 PM 42.8 °F 35.4 °F 37.4 °F 81% 29.65 in 6.2 mi WSW 15.0 mph - N/A   Partly Cloudy
11:20 PM 42.8 °F 35.1 °F 37.4 °F 81% 29.65 in 6.2 mi WSW 16.1 mph - N/A   Partly Cloudy
11:50 PM 42.8 °F 35.4 °F 37.4 °F 81% 29.65 in 6.2 mi WSW 15.0 mph - N/A   Unknown